Location: Hamilton
(37.7830°S, 175.2830°E)
Time: 05:05:18
(UTC+12:00)

ISS - Visible Passes

Search period start: 15 August 2020 00:00
Search period end: 25 August 2020 00:00
Orbit: 418 x 420 km, 51.6° (Epoch: 15 August)

Date Brightness Start Highest point End Pass type
(mag) Time Alt. Az. Time Alt. Az. Time Alt. Az.
17 Aug -0.9 20:02:16 10° NW 20:02:51 14° NW 20:02:51 14° NW visible
18 Aug -3.3 19:14:51 10° NNW 19:17:53 45° NNE 19:17:53 45° NNE visible
19 Aug -2.4 18:27:45 10° N 18:30:37 25° NE 18:32:49 14° E visible
19 Aug -1.2 20:04:11 10° W 20:05:48 22° W 20:05:48 22° W visible
20 Aug -3.1 19:16:17 10° WNW 19:19:37 54° SW 19:20:37 38° SSE visible
21 Aug -3.8 18:28:34 10° NW 18:31:59 85° NE 18:35:18 11° SE visible
21 Aug -0.9 20:06:53 10° WSW 20:08:17 15° SW 20:08:17 15° SW visible
22 Aug -1.6 19:18:33 10° W 19:21:21 23° SSW 19:22:52 17° S visible
23 Aug -2.2 18:30:24 10° W 18:33:33 33° SSW 18:36:42 10° SE visible
24 Aug -1.0 19:21:35 10° SW 19:23:14 13° SSW 19:24:45 10° S visible
